Regional Weather Roundup
Issued by NWS Albany, NY

Home | Current Version | Previous Version | Text Only | Print | Product List | Glossary On
Versions: 1 2 3 4 5 6 7 8 9 10 11 12 13 14 15 16 17 18 19 20 21 22 23 24 25 26 27 28 29 30 31 32 33 34 35 36 37 38 39 40 41 42 43 44 45 46 47 48
000
ASUS41 KALY 010610
RWRALY

NEW YORK STATE HOURLY WEATHER ROUNDUP
NATIONAL WEATHER SERVICE ALBANY NY
200 AM EDT SAT AUG 01 2015

NOTE: "FAIR" INDICATES FEW OR NO CLOUDS BELOW 12,000 FEET WITH NO
SIGNIFICANT WEATHER AND/OR NO OBSTRUCTIONS TO VISIBILITY.

NYZ032-033-038>043-046>054-057>066-NYZ062>081-010700-
EAST


CITY           SKY/WX    TMP DP  RH WIND       PRES   REMARKS
ALBANY         PTCLDY    70  58  65 S3        29.76F
GLENS FALLS    CLEAR     62  58  86 CALM      29.75F
POUGHKEEPSIE   CLEAR     65  60  84 CALM      29.79F
NEWBURGH       CLEAR     72  59  64 CALM      29.84S
MONTGOMERY     CLEAR     64  61  90 CALM      29.80F
WHITE PLAINS   CLEAR     69  63  81 CALM      29.81F
ISLIP          CLEAR     72  68  87 W5        29.80F
NEW YORK CITY  CLEAR     81  58  45 SW7       29.80F
CENTRAL PARK   CLEAR     79  58  48 VRB5      29.84F
$$

NYZ005>009-017-018-044>046-055-056-010700-
CENTRAL


CITY           SKY/WX    TMP DP  RH WIND       PRES   REMARKS
FULTON         CLOUDY    66  63  90 SW5       29.77F
SYRACUSE       LGT RAIN  68  64  87 SE5       29.77F
ROME           HVY RAIN  64  62  93 W3        29.80R FOG
ELMIRA         PTCLDY    63  62  97 CALM      29.80F
BINGHAMTON     CLOUDY    68  60  75 SW8       29.83F
MONTICELLO     CLEAR     64  57  77 NW6       29.85F
$$

NYZ026>034-041>043-010700-
NORTH


CITY           SKY/WX    TMP DP  RH WIND       PRES   REMARKS
WATERTOWN      MOCLDY    64  61  90 S3        29.73F
FORT DRUM      NOT AVBL
MASSENA        PTCLDY    65  59  81 S8        29.71F
SARANAC LAKE   CLOUDY    58  57  97 SW8       29.76F
PLATTSBURGH    MOCLDY    71  57  61 VRB7      29.71F
$$

NYZ001>004-010>016-019>021-010700-
WEST


CITY           SKY/WX    TMP DP  RH WIND       PRES   REMARKS
NIAGARA FALLS  PTCLDY    64  61  90 SW3       29.79F
BUFFALO        PTCLDY    68  56  65 W6        29.80F
DUNKIRK        MOCLDY    71  63  75 W3        29.82S
JAMESTOWN      MOCLDY    64  57  77 W9        29.87S
WELLSVILLE     LGT RAIN  64  58  80 SW10      29.88F
ROCHESTER      MOCLDY    66  62  87 CALM      29.79F
PENN YAN       PTCLDY    69  59  70 SW6       29.80F
$$

             KEY
       WCI = WIND CHILL INDEX
       VSB = VISIBILITY
       HX  = HEAT INDEX
$$



USA.gov is the U.S. government's official web portal to all federal, state and local government web resources and services.